GFSFLT2_sfc_wetblb_219.txt.gz
Wetbulb
38.06 38.69 37.70 37.67 37.95 38.69 39.45 38.63 39.00 41.30 41.52 41.40 41.66 41.68 41.71 42.01 42.18 42.51 42.31 42.54 42.74 42.82 43.51 43.84 44.32 44.59 44.61
35.57 35.84 36.08 37.03 36.79 36.53 37.66 38.51 37.86 40.28 40.78 41.01 41.12 41.13 41.20 41.55 41.78 41.72 41.38 41.33 41.31 41.71 42.27 42.64 43.05 43.33 43.74
33.79 35.78 35.73 36.13 35.58 36.19 36.12 36.67 38.09 40.48 40.44 40.46 40.84 40.85 41.01 41.26 41.37 41.07 40.29 39.92 40.05 40.65 40.88 41.10 41.54 41.94 42.46
33.67 33.59 34.55 35.78 34.82 33.19 33.14 35.13 34.90 37.57 39.00 39.68 40.29 40.26 40.49 40.74 40.73 40.46 39.55 39.23 39.92 40.32 40.26 40.16 39.96 40.33 41.02
32.46 32.63 32.60 32.69 32.05 33.55 32.55 33.36 34.19 35.51 35.16 35.91 36.15 36.50 37.20 39.13 39.55 40.10 39.11 39.41 39.61 39.50 39.69 39.58 39.32 39.38 39.76
31.61 31.20 31.47 32.25 33.11 32.39 31.89 31.07 29.24 35.73 33.22 33.92 35.74 34.54 35.71 36.25 39.22 39.22 38.90 39.04 38.54 38.55 38.72 38.79 38.59 38.54 38.91
31.71 31.83 31.88 33.39 33.58 32.45 32.38 31.76 31.55 34.70 34.26 31.24 34.44 33.20 35.45 36.65 38.71 38.85 38.55 37.86 37.59 37.70 37.87 37.97 37.96 38.13 38.31
34.47 34.17 34.65 35.57 35.31 34.74 33.78 33.65 34.36 34.84 35.21 30.04 33.03 31.69 34.02 34.81 38.17 38.05 37.89 37.33 37.57 37.36 37.47 37.52 37.38 37.49 37.81
37.04 37.50 37.70 37.66 36.97 34.35 31.21 30.14 28.81 29.93 32.98 30.23 30.26 30.26 31.69 32.49 34.33 37.41 37.29 37.31 37.17 37.09 36.76 36.82 36.97 37.21 35.60
33.51 33.89 34.79 34.41 36.12 33.51 31.85 29.55 28.75 27.37 30.70 28.50 29.18 29.42 27.46 30.16 31.30 32.93 33.08 36.16 36.63 36.21 36.06 36.19 36.44 33.25 32.42
31.27 31.43 31.73 31.67 31.93 32.16 31.97 30.67 28.55 27.01 30.68 30.48 29.16 28.45 28.78 28.47 29.70 30.64 32.34 31.82 31.66 32.37 34.90 35.30 35.87 35.44 31.71
29.48 29.37 29.49 29.67 29.66 30.19 30.39 30.53 30.73 29.52 31.09 31.07 28.81 29.10 28.39 27.28 27.02 27.93 29.31 30.51 30.47 29.86 30.55 33.71 34.94 35.44 35.75
27.57 27.89 28.98 29.16 29.18 29.18 30.16 30.58 30.44 31.00 32.41 31.87 31.85 30.57 27.97 26.19 26.50 27.06 27.38 28.47 29.70 28.63 29.76 29.74 30.06 30.76 29.47
27.52 28.37 29.02 28.86 27.96 28.79 27.43 27.77 26.40 27.69 29.47 29.60 31.03 30.36 27.78 27.61 26.98 26.31 27.52 25.69 28.42 28.77 29.18 29.62 29.95 30.61 30.29
28.46 27.91 27.66 27.54 27.07 27.75 26.90 25.90 25.42 24.97 26.07 28.30 29.85 29.05 30.95 28.97 25.38 26.44 26.06 26.92 28.02 28.00 27.75 26.88 28.28 29.28 29.79
27.62 27.03 26.44 25.53 25.65 25.77 27.28 24.40 24.49 24.18 24.58 25.96 26.69 25.70 25.71 26.59 31.00 27.27 27.23 26.61 27.46 27.58 27.35 25.68 25.83 28.11 29.22
27.34 25.57 25.59 25.75 25.89 25.56 24.90 24.41 23.46 23.17 23.72 25.53 26.26 26.02 22.45 19.34 25.23 32.59 23.85 25.81 25.61 25.77 26.49 25.79 25.08 26.73 28.27

GFSFLT2_sfc_wetblb_222.txt.gz
Wetbulb
33.02 32.96 32.54 32.75 33.97 34.33 35.68 34.26 34.34 40.93 41.41 41.56 41.66 41.77 41.97 41.87 42.05 42.38 42.55 42.56 42.45 42.22 42.46 43.25 43.54 43.75 43.96
31.30 31.41 31.40 32.18 31.97 31.46 35.28 36.97 34.29 39.34 40.87 41.21 41.12 41.20 41.49 41.69 41.65 41.80 41.84 41.38 41.24 41.25 41.57 42.15 42.65 42.84 43.29
31.61 32.26 31.83 31.93 31.47 32.08 32.11 32.00 36.15 39.75 39.93 40.33 40.57 41.20 41.38 41.22 41.36 41.27 40.80 40.30 40.13 40.34 40.64 41.02 41.38 41.78 42.05
30.28 30.63 31.47 32.76 31.66 29.98 30.11 32.31 32.56 36.00 37.49 38.86 39.80 40.43 40.65 40.60 40.45 39.83 40.13 39.78 39.99 40.24 40.18 39.74 39.96 40.40 40.91
30.16 29.58 30.28 29.90 29.58 30.66 29.98 30.30 30.64 31.67 31.84 32.60 33.03 33.81 34.00 37.78 38.17 39.06 39.74 39.88 39.66 39.54 39.36 39.50 39.34 39.42 39.84
29.48 28.34 28.36 29.06 30.37 29.97 29.12 27.94 26.74 32.56 29.62 31.50 32.35 31.61 33.04 32.89 38.55 39.22 39.23 39.42 39.33 38.57 38.71 38.82 38.67 38.74 38.87
29.30 29.14 29.27 30.75 30.68 29.66 29.23 28.33 28.39 32.32 30.69 29.33 30.66 30.37 33.05 34.77 37.77 38.50 38.70 38.81 38.69 38.21 38.51 38.40 38.25 38.05 38.21
31.84 31.47 31.59 32.86 32.95 32.89 31.04 29.79 29.97 30.81 31.03 27.48 28.41 28.18 30.14 31.17 36.68 37.40 38.02 38.38 37.99 37.96 38.22 38.05 37.30 37.23 37.58
37.21 37.37 37.54 36.98 35.72 31.16 27.81 26.26 25.59 26.33 28.33 26.26 26.62 26.76 28.92 30.11 32.01 36.37 37.19 37.19 37.33 37.61 37.74 36.80 36.51 36.66 34.61
30.90 31.83 32.76 31.90 35.34 30.12 27.81 23.92 25.10 23.11 27.56 27.67 28.53 27.89 25.96 27.07 27.95 31.08 30.52 35.36 36.51 36.86 36.20 35.96 35.74 32.39 32.28
29.24 28.69 28.33 28.49 28.69 28.23 27.67 24.91 22.05 24.60 28.59 29.17 27.82 27.28 26.96 25.80 25.63 27.82 29.93 29.58 30.05 31.42 34.35 34.90 34.95 34.52 30.84
27.01 26.83 26.73 25.90 26.13 27.21 28.47 29.93 30.24 28.75 30.16 29.70 27.87 27.26 26.95 25.77 24.90 28.11 28.26 29.02 28.62 28.11 28.95 31.94 33.81 34.25 34.59
25.43 25.06 24.98 24.31 28.32 29.12 29.19 29.28 29.43 27.68 29.53 29.66 24.33 25.62 28.29 26.41 25.60 26.42 26.83 28.02 28.66 26.06 28.02 28.06 28.02 29.07 27.62
25.05 24.84 25.47 24.31 26.69 28.81 26.97 27.28 21.48 24.01 27.43 26.70 27.24 28.32 25.80 26.58 27.66 25.79 26.70 24.10 26.80 27.18 27.86 28.17 28.51 28.75 28.30
24.47 23.72 25.65 27.09 26.99 27.34 24.82 18.66 22.60 17.95 21.14 24.11 26.32 25.41 26.58 25.58 24.49 24.97 24.92 26.49 27.90 26.72 25.95 25.31 26.70 27.40 27.86
24.74 26.37 25.78 25.38 23.50 23.65 22.51 17.67 16.50 18.66 18.60 21.48 22.30 23.04 24.91 24.33 29.67 24.03 23.56 24.26 25.42 25.66 25.13 24.49 24.60 26.53 27.56
24.03 25.60 25.80 23.11 23.87 19.70 19.49 21.26 22.04 18.81 19.52 19.97 15.87 17.49 19.47 18.55 24.12 30.35 21.81 24.39 24.12 23.89 24.89 24.10 24.04 25.75 26.93

GFSFLT2_sfc_wetblb_225.txt.gz
Wetbulb
33.29 32.16 31.72 32.22 33.52 33.84 34.75 33.35 33.51 40.27 41.22 41.37 41.57 41.46 41.53 41.87 42.00 42.20 42.49 42.66 42.45 42.39 42.51 42.58 43.07 43.48 43.69
30.71 31.39 31.07 31.68 31.42 30.85 34.20 35.70 33.04 38.24 40.24 40.73 40.93 41.07 41.57 41.82 41.67 41.67 41.85 41.44 41.27 41.04 41.57 41.67 42.09 42.41 42.77
30.28 31.19 30.79 30.54 30.40 31.11 32.38 31.53 34.90 38.85 39.32 39.60 40.36 40.87 40.84 41.40 40.82 40.84 40.29 40.26 40.65 40.67 40.65 40.85 40.77 41.10 41.81
30.79 30.91 30.49 31.47 30.13 29.44 29.31 30.79 31.48 35.02 36.63 37.77 39.19 39.64 40.18 40.52 39.90 39.31 39.54 40.00 40.46 40.51 40.32 39.62 39.60 39.92 40.56
30.77 30.32 30.22 29.40 28.74 29.41 28.15 29.23 30.59 31.39 31.19 31.91 32.69 33.71 33.27 36.99 37.13 38.36 39.46 39.61 39.86 40.07 40.04 39.27 39.38 39.49 39.87
30.06 28.84 28.96 28.61 29.18 28.91 28.48 27.89 27.35 31.71 29.77 31.24 31.95 31.91 32.43 33.04 37.44 38.37 38.48 38.80 39.07 39.66 39.31 38.89 39.15 39.33 39.35
30.27 29.60 28.60 29.76 30.17 29.51 29.34 28.60 28.54 31.34 30.01 28.78 29.96 28.73 31.15 33.20 35.94 36.96 37.60 38.14 38.62 38.90 38.77 38.62 38.79 38.84 38.22
32.71 32.11 31.88 31.93 31.97 31.94 30.85 29.76 29.38 29.93 29.81 25.06 26.70 26.11 28.15 29.78 34.97 36.48 37.17 37.39 37.19 37.37 37.73 38.16 38.12 37.37 37.21
36.71 36.80 36.90 36.32 35.26 30.13 27.30 26.35 25.20 26.62 27.88 25.48 25.79 25.13 27.08 26.84 29.73 35.07 36.15 36.03 36.16 36.76 37.17 36.95 36.60 36.53 34.00
30.84 31.51 31.83 31.98 33.39 29.41 27.33 24.52 25.67 25.12 26.52 25.05 24.65 25.59 23.43 25.57 26.71 29.24 28.86 33.27 34.76 35.04 35.32 35.67 35.75 31.85 30.47
29.51 27.56 27.23 27.96 27.69 27.84 27.68 25.00 20.71 24.23 27.88 28.43 26.98 24.98 26.01 24.85 25.11 26.67 27.95 28.33 28.81 30.06 33.00 34.13 34.79 34.04 29.89
27.01 26.43 26.18 25.80 25.93 26.72 27.24 26.88 27.10 27.89 27.35 26.47 24.78 26.16 25.91 22.94 23.46 26.01 27.28 27.87 28.10 28.20 28.12 31.32 33.18 33.82 34.02
25.80 25.53 25.89 24.61 26.72 26.25 27.08 27.15 26.89 26.78 27.89 25.27 23.62 25.05 23.76 22.90 23.50 25.00 25.72 26.90 27.65 25.73 25.31 26.99 27.29 28.38 26.67
25.31 25.44 25.41 23.67 23.79 24.00 19.95 20.22 15.52 21.75 26.34 23.86 21.67 21.33 22.33 23.60 24.92 24.04 25.65 24.08 26.28 27.52 27.90 28.02 27.91 27.80 27.15
24.90 23.74 25.44 25.03 24.94 22.12 19.09 14.73 13.02 17.51 20.39 22.47 25.09 22.56 22.52 22.31 22.47 23.93 24.35 24.25 25.33 25.46 25.20 24.02 25.60 26.21 26.47
23.40 22.47 20.38 19.44 19.60 18.85 19.56 13.18 11.91 18.88 17.35 18.50 14.31 16.32 21.22 23.26 27.45 22.19 24.30 23.29 24.68 25.18 24.19 23.34 23.25 25.66 26.76
18.11 17.90 22.91 19.21 20.47 15.94 16.83 15.75 17.42 19.13 19.38 17.25 8.85 5.92 16.33 15.37 21.96 29.27 23.16 24.06 24.08 23.19 23.77 23.43 22.74 24.47 26.24

GFSFLT2_sfc_wetblb_228.txt.gz
Wetbulb
31.89 32.03 31.81 31.76 32.85 33.16 33.91 32.49 32.66 39.49 40.56 41.14 41.41 41.49 41.59 42.05 42.33 42.34 42.23 42.75 42.86 43.00 42.80 42.95 43.30 43.55 43.90
30.92 31.68 32.11 32.30 30.59 30.54 33.44 35.05 32.56 37.53 40.35 40.20 40.47 40.93 41.47 41.35 41.77 41.43 41.07 41.13 40.89 41.38 41.81 42.36 42.47 42.63 42.73
30.84 31.72 31.41 30.43 30.85 31.32 31.53 30.80 34.00 38.11 38.91 39.50 40.08 40.57 40.61 40.53 40.67 40.59 39.89 40.10 40.29 40.61 41.37 41.56 41.58 41.30 41.56
31.64 30.82 30.08 30.91 31.14 29.59 29.25 31.12 30.94 34.22 36.04 37.23 38.49 39.01 39.30 39.54 39.13 38.79 39.01 39.47 40.15 40.32 40.56 40.72 40.65 40.57 40.72
29.75 29.56 29.67 30.20 28.45 29.14 28.88 29.57 30.39 30.30 30.05 31.18 31.71 32.10 33.00 35.86 35.87 37.23 38.50 38.98 39.30 39.57 39.81 40.41 40.44 40.03 40.02
30.95 29.93 28.16 28.11 29.26 29.44 29.21 28.26 26.41 30.36 29.15 29.44 31.17 30.34 30.87 30.61 35.97 36.65 37.17 37.86 38.53 39.01 39.50 39.86 40.01 39.64 39.61
28.64 28.76 28.44 29.83 30.18 29.94 28.70 28.41 28.35 30.46 28.72 27.58 29.18 27.66 29.27 31.28 34.41 35.88 37.08 37.65 37.69 37.51 37.68 38.08 38.38 38.69 38.97
32.38 31.48 31.82 31.96 31.79 31.69 30.62 29.67 29.53 29.21 28.77 24.30 26.30 26.19 28.39 29.22 33.78 34.87 35.85 36.15 36.36 36.22 36.45 37.18 37.32 37.00 37.24
36.62 36.68 36.64 36.21 34.84 30.49 28.07 27.16 25.83 26.53 27.39 25.39 25.52 24.96 26.61 27.06 28.08 33.48 34.62 34.66 35.12 35.28 35.35 35.50 35.82 36.26 33.96
30.56 32.06 32.55 33.39 33.47 29.97 28.08 25.36 25.13 22.31 26.69 24.55 24.59 24.74 23.23 25.64 25.79 27.76 27.92 32.22 33.78 34.13 34.51 34.51 34.68 31.50 30.32
29.80 28.33 28.60 28.16 28.39 28.52 28.51 26.67 22.56 22.42 26.79 27.72 23.75 23.58 23.54 23.65 25.55 25.46 26.23 27.11 27.71 29.15 32.44 33.08 33.74 33.21 29.19
28.17 27.68 27.41 26.90 27.24 27.56 27.54 26.98 26.67 25.97 27.32 26.11 20.09 21.09 23.79 22.76 22.05 24.64 25.60 26.69 26.79 26.56 27.45 30.06 32.15 32.61 32.85
27.24 26.94 27.17 26.82 27.32 27.04 27.22 27.18 26.55 27.09 28.20 25.36 19.36 16.80 19.10 20.73 20.86 21.70 23.13 24.86 26.69 25.31 25.50 26.38 26.86 27.87 26.84
26.78 26.80 26.72 26.17 26.02 25.02 19.84 20.35 15.83 20.49 25.96 22.90 20.36 14.74 10.62 18.25 21.21 20.80 22.59 22.09 25.05 25.54 25.90 26.09 26.97 27.03 26.39
24.91 25.30 26.40 26.45 25.39 22.59 19.79 14.62 12.61 14.43 16.17 20.51 23.62 21.71 19.64 17.92 19.40 20.65 21.53 22.19 24.28 24.77 24.53 23.67 25.33 25.60 25.89
25.61 24.33 22.49 19.48 18.27 18.31 18.80 13.34 13.96 13.04 12.45 15.57 11.97 13.72 16.85 20.95 25.72 19.84 21.61 22.02 23.85 24.33 24.48 23.12 22.99 25.21 26.33
20.93 19.36 19.04 18.16 19.91 15.16 14.18 16.63 13.96 14.80 15.70 12.92 6.10 11.00 13.52 13.32 19.99 28.03 22.01 22.50 22.64 23.27 23.49 22.99 22.49 24.22 25.63